{"data":{"norad_id":58044,"intl_designator":"2023-156S","name":"STARLINK-30547","alt_names":[],"object_type":"PAYLOAD","status":"ACTIVE","operator":null,"country":"US","launch_date":"2023-10-09","launch_site_code":"AFWTR","launch_vehicle":null,"mission":null,"orbit_class":"UNKNOWN","rcs_meters":null,"size_class":null,"mass_kg":null,"dimensions":null,"purposes":["comms"],"wikipedia_slug":null,"has_3d_model":false,"image_url":null,"decayed_at":null,"tle_current":{"epoch":"2026-05-24T21:44:20.281056Z","epoch_age_seconds":79261,"freshness":"FRESH","line1":"1 58044U 23156S   26144.90579029  .00054612  00000+0  16327-2 0  9994","line2":"2 58044  53.1611 173.9967 0001051  84.3531 275.7591 15.34069090146704","mean_motion":15.3406909,"eccentricity":0.0001051,"inclination_deg":53.1611,"raan_deg":173.9967,"arg_perigee_deg":84.3531,"mean_anomaly_deg":275.7591,"bstar":0.0016327,"rev_number":14670,"period_min":93.868001733872,"perigee_km":462.96787555803,"apogee_km":464.40602695258,"semimajor_km":6841.8239512553,"source":"CELESTRAK","updated_at":"2026-05-25T13:38:18.497326Z"}}}